Tracking 30995 objects as of 5-Jul-2025
HD Live streaming from Space Station
objects crossing your sky now

STARLINK-32419

Track STARLINK-32419 now!
10-day predictions
STARLINK-32419 is classified as:


NORAD ID: 61637
Int'l Code: 2024-191S
Perigee: 489.4 km
Apogee: 491.0 km
Inclination: 43.0 °
Period: 94.3 minutes
Semi major axis: 6861 km
RCS: Unknown
Launch date: October 23, 2024
Source: United States (US)
Launch site: AIR FORCE EASTERN TEST RANGE (AFETR)
Your satellite tracking list
Your tracking list is empty




NASA's NSSDC Master Catalog

Two Line Element Set (TLE):
1 61637U 24191S   25186.13092428  .00000958  00000-0  44345-4 0  9997
2 61637  43.0016 112.7426 0001180 268.3476  91.7240 15.27579729 40380
Source of the keplerian elements: AFSPC